Regional Weather Roundup
Issued by NWS

Home | Current Version | Previous Version | Graphics & Text | Print | Product List | Glossary On
Versions: 1 2 3 4 5 6 7 8 9 10 11 12 13 14 15 16 17 18 19 20 21 22 23 24 25 26 27 28 29 30 31 32 33 34 35 36 37 38 39 40 41 42 43 44 45 46 47 48 49 50
642
ASUS44 KJAN 252310
RWRMS

MISSISSIPPI HOURLY WEATHER ROUNDUP
NATIONAL WEATHER SERVICE JACKSON MS
500 PM CST TUE NOV 25 2014

NOTE: "FAIR: INDICATES FEW OR NO CLOUDS BELOW 12,000 FEET WITH NO
SIGNIFICANT WEATHER AND/OR OBSTRUCTIONS TO VISIBILITY.

MSZ001>002-007>008-010>013-018>021-025>028-034>036-260000-
NORTHWEST MISSISSIPPI

CITY           SKY/WX    TMP DP  RH WIND       PRES   REMARKS
CLARKSDALE     FAIR      45  32  61 CALM      30.20R
CLEVELAND      FAIR      47  29  48 CALM      30.19R
GREENWOOD      CLOUDY    46  24  42 CALM      30.19R
GREENVILLE     MOCLDY    49  28  44 W5        30.19R
GRENADA        FAIR      43  27  52 CALM      30.19R
OLIVE BRANCH   MOCLDY    43  28  56 NW9       30.17R
OXFORD         FAIR      43  23  45 W5        30.18R
TUNICA         MOCLDY    45  30  57 NW5       30.19R
$$

MSZ003>006-009-014>017-022>024-029>033-037>039-260000-
NORTHEAST MISSISSIPPI

CITY           SKY/WX    TMP DP  RH WIND       PRES   REMARKS
COLUMBUS AFB   CLOUDY    47  30  52 NW7       30.15R
CORINTH        FAIR      46  28  49 NW5       30.15R
GOLDN TRIANGLE MOCLDY    46  30  53 NW5       30.14R
STARKVILLE     FAIR      45  32  61 CALM      30.15S
TUPELO         CLOUDY    47  28  47 NW3       30.16R
$$

MSZ040-058-260000-
CENTRAL MISSISSIPPI

CITY           SKY/WX    TMP DP  RH WIND       PRES   REMARKS
JACKSON INTL   CLOUDY    49  26  41 NW7       30.19R
JACKSON HAWKNS CLOUDY    48  26  42 N5        30.19R
MERIDIAN KEY   CLOUDY    49  27  42 NW8       30.16R
MERIDIAN NAS   CLOUDY    49  28  44 NW7       30.16R
RAYMOND        FAIR      46  43  87 NW5       30.19R
VICKSBURG      CLOUDY    48  29  47 NW5       30.21R
$$

MSZ059>079-260000-
SOUTH MISSISSIPPI

CITY           SKY/WX    TMP DP  RH WIND       PRES   REMARKS
BROOKHAVEN     FAIR      46  32  57 CALM      30.19S
COLUMBIA       CLOUDY    50  32  50 MISG        N/A
HATTIESBURG    CLOUDY    52  33  48 NW5       30.15S
MCCOMB         CLOUDY    49  31  49 N3        30.17S
NATCHEZ        CLOUDY    48  30  49 NW6       30.21R
PINE BELT      CLOUDY    50  30  46 N7        30.15S
$$

MSZ080>082-260000-
COASTAL MISSISSIPPI

CITY           SKY/WX    TMP DP  RH WIND       PRES   REMARKS
BAY ST LOUIS   CLOUDY    52  34  50 N5        30.14S
BILOXI         CLOUDY    54  36  49 N10       30.11F
PASCAGOULA     CLOUDY    54  36  50 NW8       30.10F
GULFPORT       CLOUDY    53  36  52 NW8       30.11F
$$



USA.gov is the U.S. government's official web portal to all federal, state and local government web resources and services.